Showing default

PAYLOAD B, 49113

Orbit data source: Space-Track

PAYLOAD B, 49113 is a payload satellite owned by CAST (CN) in LEO that was launched on Tue, 24 Aug 2021 UTC via a CHANG ZHENG 2C/YZ-1S launch vehicle from the Jiuquan Satellite Launch Center, China (JSC). Payload-class satellites include a variety of spacecraft equipped with specific instruments for various scientific and technological missions. These include communications satellites like Starlink; space stations such as the ISS; scientific satellites like the Hubble; Earth observation satellites from companies like Planet Labs, Umbra, and HawkEye 360; GPS; miniature CubeSats for education and research; and military/defense satellites.

Loading next visibility...
Identifier
49113, 2021-076B
Orbit
LEO
Country
Flag of CNCN / PRC
Related business
Manufacturer
CAST?
Mission
Operational Civil Communications
Bus & Motor
Unknown
Mass
~50 kg wet, ~50 kg dry
Launch date (UTC)
2021-08-24 (5 years ago)
Launch vehicle
CHANG ZHENG 2C/YZ-1S
Launch site
Jiuquan Satellite Launch Center, China (JSC)
Object type
Payload
Rocket body
Debris
Shape & HBR
Box + 2 Pan, 0.5 m
Radar Cross Section
0.446 m², Medium (>0.1 m² and < 1m²)

Expand to show TLE details & history
Last TLE update: 21 hours ago

TLE from 21 hours ago
0 PAYLOAD B
1 49113U 21076B   26172.54330796  .00000317  00000-0  17092-3 0  9992
2 49113  86.4026  81.2832 0018524 186.6811 173.4127 14.09466365248048
Epoch: 2026-06-21T13:02Z
TLE epoch observation values (Epoch: 2026-06-21T13:02:21.807Z)
Latitude
-0.00004°
Longitude
-24.04973°
Altitude
877.539 km
Speed
7.407 km/s
True Right ascension
05h 25m 07s
True Declination
0° 00' 00"
Sunlit
Object was in daylight at epoch
Visualization orbit readout
Latitude
Unknown
Longitude
Unknown
Altitude
Unknown
Speed
Unknown
Apparent Right ascension
Unknown
Apparent Declination
Unknown
Sunlit
N/A
Visualization observer readout
Local Sidereal Time
21:27:59
Azimuth
Unknown
Elevation
Unknown
Doppler factor
Unknown
Orbital elements
Apogee altitude
871.602 km
Perigee altitude
844.793 km
Semi-major axis
7,236.335 km
Eccentricity
0.00185
Inclination
86.4026°
RAAN
81.2832°
Arg. of periapsis
186.6811°
True anomaly
173.437°
Mean anomaly
173.4127°
Eccentric anomaly
173.42485°
Mean motion
3.52586 °/min
Orbital period
102.1 mins
BSTAR
0.00017092
Loading maneuver chart data...
Computing Atmospheric mass density...
Loading historical data...
Loading historical data...
Loading historical data...
Loading historical data...
Loading historical data...
Loading historical data...
Loading historical data...
Other satellites on launch #76 in the year 2021 (2021-08-24 UTC)

Documentation

Showing up to 5 results
|